Pellston, MI

8:03 AM EDT on October 19, 2017 (GMT -0400)
Pellston Regional Airport Of Emmet County

Weather History for KPLN - September, 2013

Change the Weather History Date:

Monday, September 2, 2013

  Actual Average Record
Temperature  
Mean Temperature 57 °F -  
Max Temperature 59 °F 72 °F 95 °F (1953)
Min Temperature 55 °F 49 °F 30 °F (1958)
Degree Days  
Heating Degree Days 8    
Growing Degree Days 7 (Base 50)    
Moisture  
Dew Point 51 °F    
Average Humidity 81    
Maximum Humidity 88    
Minimum Humidity 69    
Precipitation  
Precipitation 0.00 in - - ()
Sea Level Pressure  
Sea Level Pressure 29.85 in    
Wind  
Wind Speed 13 mph (NW)    
Max Wind Speed 17 mph    
Max Gust Speed 24 mph    
Visibility 10 miles    
Events Rain    
Averages and records for this station are not official NWS values.
T = Trace of Precipitation, MM = Missing Value Source: NWS Daily Summary

Daily Weather History Graph

Daily Weather History Graph

Search for Another Location

Airport or City:

Trip Planner

Search our weather history database for the weather conditions in past years. The results will help you decide how hot, cold, wet, or windy it might be!

Date:

Astronomy

Sep. 02, 2013 Rise Set
Actual Time 7:02 AM EDT 8:14 PM EDT
Civil Twilight 6:31 AM EDT 8:45 PM EDT
Nautical Twilight 5:54 AM EDT 9:21 PM EDT
Astronomical Twilight 5:15 AM EDT 10:00 PM EDT
Moon 4:13 AM EDT (9/2) 6:31 PM EDT (9/2)
Length of Visible Light 14h 13m
Length of Day
13h 12m
Waning Crescent, 8% of the Moon is Illuminated
Sep 2
Waning Crescent
Sep 5
New
Sep 12
First Quarter
Sep 19
Full
Sep 26
Last Quarter

Hourly Weather History & Observations

Time (EDT) Temp. Dew Point Humidity Pressure Visibility Wind Dir Wind Speed Gust Speed Precip Events Conditions
12:54 AM 59.0 °F 54.0 °F 83% 29.78 in 10.0 mi NW 15.0 mph 21.9 mph N/A   Overcast
1:54 AM 57.9 °F 53.1 °F 84% 29.79 in 10.0 mi WNW 10.4 mph 20.7 mph N/A   Overcast
2:54 AM 57.0 °F 53.1 °F 87% 29.79 in 10.0 mi WNW 8.1 mph 16.1 mph N/A   Overcast
3:54 AM 55.9 °F 51.1 °F 84% 29.80 in 10.0 mi NW 12.7 mph 18.4 mph N/A   Overcast
4:54 AM 55.0 °F 51.1 °F 86% 29.81 in 9.0 mi WNW 8.1 mph - N/A   Overcast
5:13 AM 55.4 °F 51.8 °F 88% 29.81 in 10.0 mi West 12.7 mph - N/A   Overcast
5:54 AM 55.0 °F 48.9 °F 80% 29.81 in 10.0 mi WNW 13.8 mph 20.7 mph N/A   Overcast
6:54 AM 55.0 °F 48.0 °F 77% 29.82 in 10.0 mi WNW 15.0 mph 21.9 mph N/A   Overcast
7:54 AM 55.0 °F 48.9 °F 80% 29.83 in 8.0 mi WNW 11.5 mph 23.0 mph N/A   Overcast
8:54 AM 55.0 °F 50.0 °F 83% 29.83 in 10.0 mi WNW 11.5 mph - N/A   Overcast
9:54 AM 55.9 °F 50.0 °F 80% 29.85 in 10.0 mi WNW 16.1 mph - N/A   Overcast
10:21 AM 55.4 °F 51.8 °F 88% 29.85 in 4.0 mi WNW 12.7 mph 21.9 mph 0.00 in Rain Light Rain
10:51 AM 55.4 °F 51.8 °F 88% 29.86 in 10.0 mi WNW 15.0 mph - 0.00 in   Overcast
10:54 AM 55.9 °F 51.1 °F 84% 29.86 in 10.0 mi WNW 17.3 mph 21.9 mph 0.00 in   Overcast
11:44 AM 57.2 °F 51.8 °F 82% 29.85 in 10.0 mi WNW 13.8 mph 24.2 mph N/A   Overcast
11:51 AM 57.2 °F 51.8 °F 82% 29.86 in 10.0 mi WNW 15.0 mph 23.0 mph N/A   Overcast
11:54 AM 57.0 °F 51.1 °F 81% 29.86 in 10.0 mi WNW 13.8 mph 23.0 mph N/A   Overcast
12:54 PM 57.9 °F 51.1 °F 78% 29.87 in 10.0 mi WNW 13.8 mph 24.2 mph N/A   Overcast
1:54 PM 57.9 °F 50.0 °F 75% 29.88 in 10.0 mi WNW 16.1 mph 23.0 mph N/A   Overcast
2:54 PM 57.9 °F 50.0 °F 75% 29.88 in 10.0 mi WNW 13.8 mph - N/A   Overcast
3:54 PM 57.0 °F 51.1 °F 81% 29.88 in 9.0 mi WNW 15.0 mph 21.9 mph N/A   Overcast
4:54 PM 55.9 °F 51.1 °F 84% 29.89 in 10.0 mi NW 15.0 mph 21.9 mph 0.00 in   Overcast
5:54 PM 55.9 °F 50.0 °F 80% 29.90 in 10.0 mi NNW 16.1 mph 21.9 mph N/A   Overcast
6:54 PM 55.9 °F 48.9 °F 77% 29.91 in 10.0 mi NW 11.5 mph - N/A   Overcast
8:54 PM 57.0 °F 46.9 °F 69% 29.92 in 10.0 mi NW 13.8 mph 19.6 mph N/A   Overcast
9:54 PM 57.0 °F 48.0 °F 72% 29.91 in 10.0 mi NW 12.7 mph 23.0 mph N/A   Overcast
10:54 PM 57.9 °F 48.9 °F 72% 29.91 in 10.0 mi NNW 11.5 mph 23.0 mph N/A   Overcast
11:54 PM 57.0 °F 50.0 °F 77% 29.92 in 10.0 mi NW 13.8 mph - N/A   Overcast